Weather Roundup
Issued by NWS Springfield, MO

Home | Current Version | Previous Version | Text Only | Print | Product List | Glossary On
Versions: 1 2 3 4 5 6 7 8 9 10 11 12 13 14 15 16 17 18 19 20 21 22 23 24 25 26 27 28 29 30 31 32 33 34 35 36 37 38 39 40 41 42 43 44 45 46 47 48 49 50
000
NZUS99 KSGF 010807
HRRSGF

HOURLY WEATHER
NATIONAL WEATHER SERVICE SPRINGFIELD MO
300 AM CDT WED OCT 01 2014

......SGF CWA......

CITY           SKY/WX    TMP DP  RH WIND       PRES   REMARKS
SPRINGFIELD    CLEAR     66  55  67 S12       29.85R
JOPLIN         CLEAR     69  59  70 S10       29.81S
WEST PLAINS    CLEAR     59  53  80 SE3       29.91S
ROLLA          CLEAR     65  52  62 SE10      29.86F
OSAGE BEACH    CLEAR     63  52  67 S5        29.86S
BRANSON        PTCLDY    64  57  77 SE9       29.88F

......SURROUNDING SGF CWA......

CITY           SKY/WX    TMP DP  RH WIND       PRES   REMARKS
CHANUTE        MOCLDY    69  61  75 SE10      29.77F
PARSONS        CLEAR     70  62  76 SE6       29.78F
COFFEYVILLE    MOCLDY    69  62  78 S8        29.77F
EMPORIA        CLOUDY    70  63  78 S16       29.73S
GROVE OK       PTCLDY    72  61  68 SE8       29.81F
ROGERS AR      CLEAR     65  59  81 SE7       29.86F
SILOAM SPRINGS MOCLDY    66  55  68 SE7       29.86S
HARRISON AR    CLEAR     62  59  90 SE8       29.89S
NEAR YELLVILLE CLEAR     57  52  82 CALM      29.88F

......KANSAS AND MISSOURI......

CITY           SKY/WX    TMP DP  RH WIND       PRES   REMARKS
KANSAS CTY INT CLOUDY    69  61  75 S14       29.75F
DOWNTOWN KC    MOCLDY    72  60  66 S13G23    29.76F
COLUMBIA       CLEAR     64  56  75 SE7       29.86S
SEDALIA        PTCLDY    66  55  67 S7        29.84S
ST JOSEPH      CLOUDY    69  63  81 SE8       29.74F
ST LOUIS       CLEAR     66  60  81 E8        29.90F
SPIRIT OF STL  CLEAR    N/A N/A N/A CALM      29.88S
KIRKSVILLE     MOCLDY    61  32  33 SE8       29.85F
WICHITA        CLOUDY    71  64  78 S9        29.72S
TOPEKA         CLOUDY    74  62  66 S15G22    29.72R
OLATHE         MOCLDY    66  60  81 S13       29.76F

......TENNESSEE......

CITY           SKY/WX    TMP DP  RH WIND       PRES   REMARKS
MEMPHIS        PTCLDY    71  60  68 SE3       29.89S
NASHVILLE      CLEAR     59  56  89 S3        29.93F

......ARKANSAS.......

CITY           SKY/WX    TMP DP  RH WIND       PRES   REMARKS
FAYETTEVILLE   CLEAR     62  60  93 S5        29.85F
FT SMITH       CLEAR     68  63  84 NE7       29.83S
LITTLE ROCK    PTCLDY    68  63  84 CALM      29.86S

......OKLAHOMA.......

CITY           SKY/WX    TMP DP  RH WIND       PRES   REMARKS
TULSA          PTCLDY    73  63  70 SE9       29.77S
PONCA CITY     MOCLDY    73  64  73 S17G24    29.72F
MCALESTER      PTCLDY    73  64  73 VRB6      29.80F
OKLAHOMA CITY  MOCLDY    73  66  78 S13       29.76R

......IOWA............

CITY           SKY/WX    TMP DP  RH WIND       PRES   REMARKS
DES MOINES     RAIN      63  58  83 SE3       29.83R

......ILLINOIS........

CITY           SKY/WX    TMP DP  RH WIND       PRES   REMARKS
QUINCY         CLEAR     58  53  84 SE12      29.88F
CHICAGO        CLOUDY    54  46  74 SE13      30.00S




USA.gov is the U.S. government's official web portal to all federal, state and local government web resources and services.